Simultaneous Nadir Overpasses (SNOs) Predictions

Prediction of SNOs between GOES-14 and NOAA-20 Satellite Orbit:

Table of predicted SNOs for the next 14.0 days since TLE Epoch: 6/4/2022
Index Date Time (GOES-14) GOES-14 Lat,Lon NOAA-20 Lat,Lon Distance(km) Time Diff (sec)
1 06/04/2022 08:36:58 -0.03,-104.45 0.76,-108.12 417.28 80
2 06/05/2022 08:20:52 -0.02,-104.45 -0.22,-103.58 100.19 80
3 06/06/2022 20:40:10 0.04,-104.70 -0.89,-108.90 478.25 80
4 06/07/2022 20:21:24 0.02,-104.70 0.10,-104.36 38.60 80
5 06/10/2022 08:24:26 -0.04,-104.46 0.07,-105.10 71.62 80
6 06/11/2022 08:08:21 -0.03,-104.47 -0.92,-100.56 445.77 80
7 06/12/2022 20:27:38 0.07,-104.72 -0.19,-105.88 132.59 80
8 06/13/2022 20:11:32 0.05,-104.71 0.80,-101.35 383.78 80
9 06/15/2022 08:30:39 -0.09,-104.46 0.41,-106.61 245.40 80
10 06/16/2022 08:14:33 -0.07,-104.46 -0.58,-102.07 271.49 80
11 06/17/2022 20:33:50 0.10,-104.71 -0.52,-107.39 305.97 80
